Regional Weather Roundup
Issued by NWS Cleveland, OH

Home | Current Version | Previous Version | Graphics & Text | Print | Product List | Glossary On
Versions: 1 2 3 4 5 6 7 8 9 10 11 12 13 14 15 16 17 18 19 20 21 22 23 24 25 26 27 28 29 30 31 32 33 34 35 36 37 38 39 40 41 42 43 44 45 46 47 48 49 50
000
ASUS41 KCLE 301702
RWRCLE
OHIO REGIONAL WEATHER ROUNDUP
NATIONAL WEATHER SERVICE CLEVELAND, OH
100 PM EDT TUE SEP 30 2014

NOTE: "FAIR" INDICATES FEW OR NO CLOUDS BELOW 12,000 FEET WITH NO
SIGNIFICANT WEATHER AND/OR OBSTRUCTIONS TO VISIBILITY.

OHZ001>008-015>018-024>027-034-035-043-044-301800-
   NORTHWEST OHIO

CITY           SKY/WX    TMP DP  RH WIND       PRES   REMARKS
DEFIANCE       CLOUDY    57  47  69 N7        29.99S
FINDLAY        CLOUDY    57  49  74 NW9       29.97R
TOLEDO EXPRESS CLOUDY    57  49  74 VRB6      29.97S
TOLEDO EXEC    CLOUDY    57  50  77 N5        29.98R
LIMA             N/A    N/A N/A N/A MISG      29.98S
$$

OHZ009>014-019>023-028>033-038-089-301800-
   NORTHEAST OHIO

CITY           SKY/WX    TMP DP  RH WIND       PRES   REMARKS
CLE-HOPKINS    CLOUDY    59  57  93 NW9       29.95R FOG
CLE-LAKEFRONT  LGT RAIN  60  56  86 N10       29.93R
CUY CO. ARPT   CLOUDY    61  61 100 N12       29.93R FOG
LORAIN-ELYRIA  CLOUDY    61  56  83 N7        29.95R
ASHTABULA      CLOUDY    61  59  93 SW7       29.92R
AKRON-CANTON   CLOUDY    63  58  83 W6        29.92R HAZE
WOOSTER        CLOUDY    62  58  86 N8        29.94R
MANSFIELD      LGT RAIN  57  57 100 NW10      29.95R
YOUNGSTOWN     CLOUDY    61  58  90 SE8       29.91F
$$

OHZ042-051>053-060>062-070>072-077>081-301800-
  SOUTHWEST OHIO

CITY           SKY/WX    TMP DP  RH WIND       PRES   REMARKS
CINC-COVINGTON MOSUNNY   77  56  48 NW9       29.94S
CINC-LUNKEN    MOSUNNY   77  57  50 N10       29.93F
HAMILTON       MOSUNNY   72  59  63 NW6       29.95F
DAYTON         CLOUDY    62  58  86 NW8       29.97R FOG
WRIGHT-PAT AFB CLOUDY    64  58  83 NW8       29.95S
DAYTON GENERAL PTSUNNY   68  59  73 NW6       29.95S
WILMINGTON     PTSUNNY   75  57  53 NW7       29.93S
$$

OHZ036-037-039>041-045>050-054>059-063>069-073>076-082>088-301800-
  CENTRAL AND SOUTHEAST OHIO

CITY           SKY/WX    TMP DP  RH WIND       PRES   REMARKS
COLUMBUS       PTSUNNY   64  59  83 NW8       29.93S HAZE
OSU AIRPORT    CLOUDY    63  60  90 N7        29.93F FOG
BOLTON FIELD   CLOUDY    64  61  88 W7        29.94S
RICKENBACK AFB PTSUNNY   62  58  88 CALM      29.93R
NEWARK         PTSUNNY   67  60  78 CALM      29.92F
MARION         CLOUDY    56  54  93 N10       29.96R FOG
LANCASTER      LGT RAIN  63  59  87 S5        29.93F FOG
ZANESVILLE     LGT RAIN  61  58  90 SE6       29.92F FOG
NEW PHILLY     PTSUNNY   62  60  93 S3        29.93R
$$


USA.gov is the U.S. government's official web portal to all federal, state and local government web resources and services.